Regional Weather Roundup
Issued by NWS

Home | Current Version | Previous Version | Graphics & Text | Print | Product List | Glossary Off
Versions: 1 2 3 4 5 6 7 8 9 10 11 12 13 14 15 16 17 18 19 20 21 22 23 24 25 26 27 28 29 30 31 32 33 34 35 36 37 38 39 40 41 42 43 44 45 46 47 48 49 50

000
ASUS43 KDMX 270204
RWRIA

WEATHER ROUNDUP FOR IOWA
NATIONAL WEATHER SERVICE DES MOINES IA
  ISSUED BY NWS QUAD CITIES IA IL
800 PM CST THU FEB 26 2015

NOTE: "FAIR" INDICATES FEW OR NO CLOUDS BELOW 12,000 FEET WITH NO
SIGNIFICANT WEATHER AND/OR OBSTRUCTIONS TO VISIBILITY.

* - THESE STATIONS ARE NOT NWS STATIONS...THUS NOT UNDER NWS
QUALITY CONTROL.  THEY ALSO DO NOT REPORT WEATHER SUCH
AS PRECIPITATION OR FOG.

IAZ001>003-012>014-020>022-031>034-043>046-270300-
   NORTHWEST IOWA

CITY           SKY/WX    TMP DP  RH WIND       PRES   REMARKS
CARROLL *      MOCLDY    -4  -9  77 NW7       30.52R WCI -18
CHEROKEE *     CLEAR     -1  -7  76 NW3       30.53R
DENNISON *     CLEAR     -2  -9  71 CALM      30.51S
LE MARS *      CLEAR      0  -6  78 N6        30.55R WCI -12
ORANGE CITY *  CLEAR      1  -6  71 N6        30.50S WCI -10
SHELDON *      CLEAR     -4 -11  71 NW8       30.50R WCI -19
SIOUX CITY     CLEAR      5  -4  66 N10       30.56R WCI -10
SPENCER        CLEAR     -6 -12  75 NW6       30.50R WCI -19
STORM LAKE *   CLEAR     -2  -8  78 NW9       30.49S WCI -18
$$

IAZ055>058-069>071-079>083-090>094-270300-
   SOUTHWEST IOWA

CITY           SKY/WX    TMP DP  RH WIND       PRES   REMARKS
ATLANTIC *     CLEAR      0  -8  71 CALM      30.54R
AUDUBON *      CLEAR      0  -8  71 NW3       30.52R
CLARINDA *     CLEAR      3  -4  72 N7        30.58R WCI  -9
COUNCIL BLFS * MOCLDY     5   0  78 N7        30.52S WCI  -7
CRESTON *      CLEAR      0  -8  71 NW7       30.52R WCI -13
HARLAN *       CLEAR      0  -6  78 N6        30.57R WCI -12
LAMONI         CLEAR      2  -3  80 NW6       30.51R WCI  -9
RED OAK *      CLEAR      1  -4  78 N6        30.56R WCI -10
SHENANDOAH *   PTCLDY     3  -4  72 N5        30.58R WCI  -6
$$

IAZ047>049-059>061-072>074-084-270300-
   CENTRAL IOWA

CITY           SKY/WX    TMP DP  RH WIND       PRES   REMARKS
AMES           CLEAR      0  -8  69 NW10      30.53R WCI -16
ANKENY *       CLEAR      3  -6  66 N8        30.54R WCI -10
BOONE *        PTCLDY     0  -6  78 NW6       30.50R WCI -12
CHARITON *     PTCLDY     1  -8  66 NW9       30.52R WCI -14
DES MOINES     CLEAR      4  -6  63 NW9       30.53R WCI -10
GRINNELL *     CLEAR     -5 -10  79 NW6       30.50R WCI -17
KNOXVILLE *    CLEAR      1  -8  66 NW8       30.51R WCI -12
MARSHALLTOWN   CLEAR     -6 -11  79 NW9       30.50R WCI -23
NEWTON *       CLEAR      0  -8  71 NW12      30.52R WCI -18
PELLA *        CLEAR     -1  -5  82 NW8       30.54R WCI -15
PERRY *          N/A      0  -4  84 NW7       30.53R WCI -13
$$

IAZ004>006-015-016-023>025-035-036-270300-
   NORTH CENTRAL IOWA

CITY           SKY/WX    TMP DP  RH WIND       PRES   REMARKS
ALGONA *       CLEAR     -4  -9  77 NW10      30.51R WCI -21
CLARION *      CLEAR     -8 -13  77 NW6       30.50R WCI -21
ESTHERVILLE    CLEAR     -9 -13  83 NW8       30.49R WCI -25
FORT DODGE *   CLEAR     -2  -9  71 CALM      30.52R
MASON CITY     CLEAR     -9 -14  78 W10       30.49R WCI -27
FOREST CITY *  FAIR      -6 -13  71 NW7       30.47S WCI -20
WEBSTER CITY * FAIR      -8 -15  71 NW9       30.50R WCI -25
IOWA FALLS *   FAIR      -9 -14  78 W8        30.50R WCI -26
$$

IAZ007>011-017>019-026>030-037>042-050>054-066-270300-
   NORTHEAST IOWA

CITY           SKY/WX    TMP DP  RH WIND       PRES   REMARKS
CEDAR RAPIDS   CLEAR     -3  -9  75 NW14      30.47R WCI -22
CHARLES CITY * CLEAR     -6 -11  77 NW9       30.47R WCI -22
CLINTON *      CLEAR     -2 -11  65 NW9       30.46R WCI -18
DECORAH *      CLEAR      0 -11  60 W5        30.42S WCI -10
DUBUQUE        CLEAR      2  -8  63 NW15      30.41R WCI -17
MONTICELLO *   CLEAR      0  -8  71 NW14      30.45R WCI -19
OELWEIN *      CLEAR     -8 -15  71 W9        30.46R WCI -25
WATERLOO       CLEAR     -3  -9  75 W7        30.49R WCI -16
$$

IAZ064-065-067-068-078-270300-
   EAST CENTRAL IOWA

CITY           SKY/WX    TMP DP  RH WIND       PRES   REMARKS
DAVENPORT      CLEAR     -1  -9  68 NW12      30.46R WCI -18
IOWA CITY      CLEAR      2  -7  66 NW9       30.52R WCI -13
MT. PLEASANT * CLEAR      3  -6  66 NW9       30.51R WCI -12
MUSCATINE *    CLEAR      3  -6  66 NW13      30.52R WCI -14
QUAD CITIES    CLEAR      5  -5  63 NW14      30.47R WCI -12
$$

IAZ062-063-075>077-085>089-095>099-270300-
   SOUTHEAST IOWA

CITY           SKY/WX    TMP DP  RH WIND       PRES   REMARKS
BURLINGTON     CLEAR      4  -5  66 NW9       30.49R WCI -10
FAIRFIELD *    CLEAR      0 -11  60 NW9       30.52R WCI -16
FORT MADISON * CLEAR      1  -6  71 NW10      30.51R WCI -14
KEOKUK *       CLEAR      5  -4  66 NW10      30.51R WCI -10
OSKALOOSA *    FAIR       0  -7  73 NW9       30.52R WCI -15
CENTERVILLE *  FAIR       1  -4  78 NW6       30.52R WCI -10
OTTUMWA        CLEAR      0  -8  69 NW13      30.52R WCI -18
WASHINGTON *   FAIR       1  -6  71 NW10      30.51R WCI -14
$$

ABBREVIATIONS USED IN REMARKS
   TC - TEMPERATURES IN CELSIUS
  WCI - WIND CHILL INDEX
   HX - HEAT INDEX
  VSB - VISIBILITY
$$



USA.gov is the U.S. government's official web portal to all federal, state and local government web resources and services.